Flag for Germany Weather past 2 weeks in Barsinghausen, Lower Saxony, Germany

Now
63 °F

Mild.


Feels Like: 63 °F
Forecast: 57 / 82 °F
Wind: 3 mph from South

Location: Wunstorf Airport

Current Time: Jul 7, 2015 at 12:15:08 AM

Latest Report: Jul 6, 2015 at 11:20 PM


Visibility: 4 mi

Pressure: 30.07 "Hg

Humidity: 77%

Dew point: 55 °F

Location of BarsinghausenLocation

Historic Weather in Barsinghausen — Graph

°F

Barsinghausen temperature yesterday

Maximum temperature yesterday: 75 °F (at 4:20 PM)
Minimum temperature yesterday: 61 °F (at 7:20 AM)
Average temperature yesterday: 70 °F

Past Weeks' High & Low Weather Summary

 TemperatureHumidityPressure
High97 °F (Jul 4, 3:20 PM)100% (Jun 22, 11:20 PM)30.27 "Hg (Jun 22, 11:20 PM)
Low48 °F (Jun 22, 11:20 PM)34% (Jun 30, 6:20 PM)29.65 "Hg (Jun 22, 9:20 PM)
Average67 °F67%30.06 "Hg
* Reported Jun 21 10:20 PM — Jul 6 10:20 PM, Barsinghausen, Weather by CustomWeather, © 2015

Note: Actual official high and low records may vary slightly from our data, if they occured in-between our weather recording intervals... More about our weather records

Advertising

Barsinghausen weather history for previous 24 hours

 ConditionsComfort  
Time TempWeatherWind HumidityBarometerVisibility
10:20 PM
Mon, Jul 6
64 °FMild.1 mph64%30.09 "Hg4 mi
9:20 PM70 °FMild.5 mph57%30.07 "Hg3 mi
8:20 PM72 °FMild.5 mph53%30.09 "Hg4 mi
7:20 PM73 °FPassing clouds.8 mph44%30.09 "HgN/A
6:20 PM75 °FPassing clouds.12 mph41%30.09 "HgN/A
5:20 PM75 °FPassing clouds.12 mph41%30.12 "HgN/A
4:20 PM75 °FScattered clouds.12 mph41%30.12 "HgN/A
3:20 PM73 °FScattered clouds.13 mph44%30.12 "HgN/A
2:20 PM73 °FScattered clouds.13 mph47%30.12 "HgN/A
1:20 PM72 °FScattered clouds.13 mph50%30.12 "HgN/A
12:20 PM70 °FScattered clouds.15 mph53%30.12 "HgN/A
11:20 AM68 °FScattered clouds.14 mph60%30.12 "HgN/A
10:20 AM66 °FScattered clouds.14 mph68%30.12 "HgN/A
9:20 AM64 °FScattered clouds.13 mph78%30.12 "HgN/A
8:20 AM63 °FScattered clouds.13 mph83%30.09 "HgN/A
7:20 AM61 °FPassing clouds.9 mph88%30.09 "HgN/A
4:20 AM72 °FMild.24 mph83%30.07 "Hg3 mi
3:20 AM72 °FMild.24 mph83%30.07 "Hg3 mi
2:20 AM72 °FMild.24 mph83%30.04 "Hg3 mi
1:20 AM72 °FMild.24 mph83%30.01 "Hg3 mi
12:20 AM72 °FMild.24 mph83%29.98 "Hg2 mi
Weather by CustomWeather, © 2015

See weather overviewHow to use our weather pages